{"data":{"norad_id":58427,"epoch":"2026-05-25T04:40:00.967296Z","epoch_age_seconds":61479,"freshness":"FRESH","line1":"1 58427U 23181C   26145.19445564 -.00000079  00000+0  87582-4 0  9997","line2":"2 58427  49.9598  51.0671 0011073 188.6451 171.4237 13.41482300122665","mean_motion":13.414823,"eccentricity":0.0011073,"inclination_deg":49.9598,"raan_deg":51.0671,"arg_perigee_deg":188.6451,"mean_anomaly_deg":171.4237,"bstar":8.7582e-5,"rev_number":12266,"period_min":107.3439433379,"perigee_km":1095.4779046727,"apogee_km":1112.0473195537,"semimajor_km":7481.8996121132,"source":"CELESTRAK","updated_at":"2026-05-25T13:38:00.733434Z"}}